CAPE
1 1 1 0 0 0 0 0 0 0 0 0 0 0 0 0 0 0 0 0 0 0 0 0 0 0 0 0 0 0 0 0 0 0 0 902 597 390 419 187 485 457 453 574 705
0 1 1 1 0 0 0 0 0 0 0 0 0 0 0 0 0 0 0 0 0 0 0 0 0 0 0 0 0 0 0 0 0 0 0 639 820 309 607 325 569 427 518 789 578
1 0 0 0 0 0 0 0 0 0 0 0 0 0 0 0 0 0 0 0 0 0 0 0 0 0 0 0 0 0 0 0 0 0 0 134 699 639 716 384 527 382 590 767 650
0 1 1 1 0 0 0 0 0 0 0 0 0 0 0 0 0 0 0 0 0 0 0 0 0 0 0 0 0 0 0 0 0 0 0 11 605 707 808 696 489 446 713 785 785
1 1 1 1 0 0 0 0 0 0 0 0 0 0 0 0 0 0 0 0 0 0 0 0 0 0 0 0 0 0 0 0 0 0 0 45 163 505 545 799 713 698 733 821 961
1 2 1 1 1 1 0 0 0 0 0 0 0 0 0 0 0 0 0 0 0 0 0 0 0 0 0 0 0 0 0 0 0 0 0 0 30 500 385 637 684 819 743 870 1063
1 2 1 1 1 1 0 0 0 0 0 0 0 0 0 0 0 0 0 0 0 0 0 0 0 0 0 0 0 0 0 0 0 0 0 0 0 1 283 702 717 761 818 878 1094
1 1 2 1 1 1 0 0 0 0 0 0 0 0 0 0 0 0 0 0 0 0 0 0 0 0 0 0 0 0 0 0 0 0 0 0 0 0 265 543 531 716 729 816 1059
1 2 1 1 1 0 0 0 0 0 0 0 0 0 0 0 0 0 0 0 0 0 0 0 0 0 0 0 0 0 0 0 0 0 0 0 0 7 249 614 721 847 792 867 1034
1 1 1 1 1 0 0 0 0 0 0 0 0 0 0 0 0 0 0 0 0 0 0 0 0 0 0 0 0 0 0 0 0 0 0 0 0 18 456 845 1014 1005 954 992 955
1 1 1 1 1 0 0 0 0 0 0 0 0 0 0 0 0 0 0 0 0 0 0 0 0 0 0 0 0 0 0 0 0 0 0 0 0 61 470 535 496 504 428 750 1033
1 1 1 1 1 0 0 0 0 0 0 0 0 0 0 0 0 0 0 0 0 0 0 0 0 0 0 0 0 0 0 0 0 0 0 0 0 69 138 164 160 102 85 11 54
1 1 1 1 0 0 0 0 0 0 0 0 0 0 0 0 0 0 0 0 0 0 0 0 0 0 0 0 0 0 0 0 0 0 0 0 0 12 37 262 297 309 220 292 396
1 1 1 0 0 0 0 0 0 0 0 0 0 0 0 0 0 0 0 0 0 0 0 0 0 0 0 0 0 0 0 0 0 0 0 0 0 0 62 188 389 319 200 167 245
2 2 1 0 0 0 0 0 0 0 0 0 0 0 0 0 0 0 0 0 0 0 0 0 0 0 0 0 0 0 0 0 0 0 0 0 0 41 9 82 225 62 6 14 185
2 3 2 0 0 0 0 0 0 0 0 0 0 0 0 0 0 0 0 0 0 0 0 0 0 0 0 0 0 0 0 0 0 0 2 0 0 78 48 66 77 18 7 91 251
2 0 0 0 0 0 0 0 0 0 0 0 0 0 0 0 0 0 0 0 0 0 0 0 0 0 0 0 0 0 0 0 0 2 0 0 21 47 0 7 65 36 40 54 147
2 0 0 0 0 0 0 0 0 0 0 0 0 0 0 0 0 0 0 0 0 0 0 0 0 0 0 0 0 0 0 0 0 0 0 0 95 130 9 16 35 0 0 38 163
0 0 0 0 0 0 0 0 0 0 0 0 0 0 0 0 0 0 0 0 0 0 0 0 0 0 0 0 0 0 0 0 0 0 0 4 93 54 32 8 3 0 76 173 7
0 0 0 0 0 0 0 0 0 0 0 0 0 0 0 0 0 0 0 0 0 0 0 0 0 0 0 0 0 0 0 1 0 0 0 0 22 48 5 22 20 3 26 24 277
0 0 0 0 0 0 0 0 0 0 0 0 0 0 0 0 0 0 0 0 0 0 0 0 0 0 0 0 0 0 0 0 0 0 1 0 0 9 24 15 17 9 59 722 1032
0 0 0 0 0 0 0 0 0 0 0 0 0 0 0 0 0 0 0 0 0 0 0 0 0 0 0 0 0 0 0 0 0 0 0 0 0 0 64 25 8 0 553 1225 1559
0 0 0 0 0 0 0 0 0 0 0 0 0 0 0 0 0 0 0 0 0 0 0 0 0 3 0 0 0 0 0 0 0 0 0 0 0 0 71 14 12 10 1389 1498 1685
0 0 0 0 0 0 0 0 0 0 0 0 0 0 0 0 0 0 0 0 0 0 0 0 0 10 5 0 0 0 0 0 0 0 0 0 0 0 0 11 14 509 1694 1623 1454
0 0 0 0 0 0 0 0 0 0 0 0 0 0 0 0 0 4 0 0 0 0 0 0 0 0 0 0 0 0 0 0 0 0 0 0 0 0 0 34 6 1184 1533 1266 1074
0 0 0 0 0 0 0 0 0 0 0 0 0 0 0 24 16 11 0 0 0 0 0 0 0 0 0 0 0 0 0 0 0 0 0 0 0 15 0 0 281 1328 1168 1044 1034
0 0 0 0 0 0 0 0 0 0 0 0 0 1 0 0 0 0 0 0 0 0 0 0 0 0 0 0 0 0 0 0 24 139 41 0 111 180 228 200 725 1154 898 983 970
CIN
-0 -0 -0 -0 -0 -0 -0 -0 -0 -0 -0 -0 -0 -0 -0 -0 -0 -0 -0 -0 -0 -0 -0 -0 -0 -0 -0 -0 -0 -0 -0 -0 -0 -0 -0 -52 -53 -124 -156 -136 -125 -104 -99 -111 -147
-0 -0 -0 -0 -0 -0 -0 -0 -0 -0 -0 -0 -0 -0 -0 -0 -0 -0 -0 -0 -0 -0 -0 -0 -0 -0 -0 -0 -0 -0 -0 -0 -0 -0 -0 -45 -64 -81 -90 -121 -114 -128 -168 -165 -179
-0 -0 -0 -0 -0 -0 -0 -0 -0 -0 -0 -0 -0 -0 -0 -0 -0 -0 -0 -0 -0 -0 -0 -0 -0 -0 -0 -0 -0 -0 -0 -0 -0 -0 -0 -66 -62 -98 -85 -68 -83 -73 -165 -188 -172
-0 -0 -0 -0 -0 -0 -0 -0 -0 -0 -0 -0 -0 -0 -0 -0 -0 -0 -0 -0 -0 -0 -0 -0 -0 -0 -0 -0 -0 -0 -0 -0 -0 -0 -0 -48 -64 -66 -91 -68 -114 -112 -157 -192 -153
-0 -0 -0 -0 -0 -0 -0 -0 -0 -0 -0 -0 -0 -0 -0 -0 -0 -0 -0 -0 -0 -0 -0 -0 -0 -0 -0 -0 -0 -0 -0 -0 -0 -0 -0 -89 -63 -48 -74 -121 -138 -180 -202 -173 -134
-0 -0 -0 -0 -0 -0 -0 -0 -0 -0 -0 -0 -0 -0 -0 -0 -0 -0 -0 -0 -0 -0 -0 -0 -0 -0 -0 -0 -0 -0 -0 -0 -0 -0 -0 -0 -78 -99 -116 -186 -184 -191 -182 -163 -132
-0 -0 -0 -0 -0 -0 -0 -0 -0 -0 -0 -0 -0 -0 -0 -0 -0 -0 -0 -0 -0 -0 -0 -0 -0 -0 -0 -0 -0 -0 -0 -0 -0 -0 -0 -0 -0 -7 -165 -181 -172 -184 -216 -185 -151
-0 -0 -0 -0 -0 -0 -0 -0 -0 -0 -0 -0 -0 -0 -0 -0 -0 -0 -0 -0 -0 -0 -0 -0 -0 -0 -0 -0 -0 -0 -0 -0 -0 -0 -0 -0 -0 -0 -215 -164 -146 -197 -200 -188 -170
-0 -0 -0 -0 -0 -0 -0 -0 -0 -0 -0 -0 -0 -0 -0 -0 -0 -0 -0 -0 -0 -0 -0 -0 -0 -0 -0 -0 -0 -0 -0 -0 -0 -0 -0 -0 -0 -204 -258 -187 -160 -182 -166 -149 -153
-0 -0 -0 -0 -0 -0 -0 -0 -0 -0 -0 -0 -0 -0 -0 -0 -0 -0 -0 -0 -0 -0 -0 -0 -0 -0 -0 -0 -0 -0 -0 -0 -0 -0 -0 -0 -0 -184 -239 -200 -155 -177 -163 -150 -161
-0 -0 -0 -0 -0 -0 -0 -0 -0 -0 -0 -0 -0 -0 -0 -0 -0 -0 -0 -0 -0 -0 -0 -0 -0 -0 -0 -0 -0 -0 -0 -0 -0 -0 -0 -0 -0 -181 -249 -228 -192 -195 -217 -186 -157
-1 -0 -0 -0 -0 -0 -0 -0 -0 -0 -0 -0 -0 -0 -0 -0 -0 -0 -0 -0 -0 -0 -0 -0 -0 -0 -0 -0 -0 -0 -0 -0 -0 -0 -0 -0 -0 -291 -319 -286 -282 -301 -305 -357 -312
-0 -0 -0 -0 -0 -0 -0 -0 -0 -0 -0 -0 -0 -0 -0 -0 -0 -0 -0 -0 -0 -0 -0 -0 -0 -0 -0 -0 -0 -0 -0 -0 -0 -0 -0 -0 -0 -249 -332 -281 -255 -248 -262 -234 -229
-0 -0 -0 -0 -0 -0 -0 -0 -0 -0 -0 -0 -0 -0 -0 -0 -0 -0 -0 -0 -0 -0 -0 -0 -0 -0 -0 -0 -0 -0 -0 -0 -0 -0 -0 -0 -0 -0 -286 -233 -169 -163 -176 -203 -215
-0 -0 -0 -0 -0 -0 -0 -0 -0 -0 -0 -0 -0 -0 -0 -0 -0 -0 -0 -0 -0 -0 -0 -0 -0 -0 -0 -0 -0 -0 -0 -0 -0 -0 -0 -0 -4 -100 -355 -186 -134 -212 -210 -147 -226
-0 -0 -0 -0 -0 -0 -0 -0 -0 -0 -0 -0 -0 -0 -0 -0 -0 -0 -0 -0 -0 -0 -0 -0 -0 -0 -0 -0 -0 -0 -0 -0 -0 -0 -9 -0 -0 -43 -141 -178 -189 -254 -298 -219 -232
-0 -0 -0 -0 -0 -0 -0 -0 -0 -0 -0 -0 -0 -0 -0 -0 -0 -0 -0 -0 -0 -0 -0 -0 -0 -0 -0 -0 -0 -0 -0 -0 -0 -11 -0 -0 -57 -54 -0 -260 -258 -275 -285 -246 -271
-0 -0 -0 -0 -0 -0 -0 -0 -0 -0 -0 -0 -0 -0 -0 -0 -0 -0 -0 -0 -0 -0 -0 -0 -0 -0 -0 -0 -0 -0 -0 -0 -0 -0 -0 -0 -39 -25 -239 -305 -382 -0 -0 -279 -248
-0 -0 -0 -0 -0 -0 -0 -0 -0 -0 -0 -0 -0 -0 -0 -0 -0 -0 -0 -0 -0 -0 -0 -0 -0 -0 -0 -0 -0 -0 -0 -0 -0 -0 -0 -72 -71 -120 -223 -272 -302 -0 -257 -234 -360
-0 -0 -0 -0 -0 -0 -0 -0 -0 -0 -0 -0 -0 -0 -0 -0 -0 -0 -0 -0 -0 -0 -0 -0 -0 -0 -0 -0 -0 -0 -0 -4 -4 -0 -0 -0 -62 -20 -49 -128 -286 -127 -287 -339 -269
-0 -0 -0 -0 -0 -0 -0 -0 -0 -0 -0 -0 -0 -0 -0 -0 -0 -0 -0 -0 -0 -0 -0 -0 -0 -0 -0 -0 -0 -0 -0 -0 -0 -0 -21 -11 -0 -26 -93 -191 -220 -344 -307 -163 -158
-0 -0 -0 -0 -0 -0 -0 -0 -0 -0 -0 -0 -0 -0 -0 -0 -0 -0 -0 -0 -0 -0 -0 -0 -0 -7 -0 -0 -0 -0 -0 -0 -0 -0 -0 -0 -0 -0 -202 -285 -333 -0 -192 -140 -125
-0 -0 -0 -0 -0 -0 -0 -0 -0 -0 -0 -0 -0 -0 -0 -0 -0 -0 -0 -0 -0 -0 -0 -0 -0 -10 -0 -0 -0 -0 -0 -0 -0 -0 -0 -0 -0 -0 -268 -312 -391 -379 -142 -128 -117
-0 -0 -0 -0 -0 -0 -0 -0 -0 -0 -0 -0 -0 -0 -0 -0 -0 -0 -0 -0 -0 -0 -0 -0 -0 -26 -3 -0 -0 -0 -0 -0 -0 -0 -0 -0 -0 -0 -0 -302 -360 -261 -133 -130 -132
-0 -0 -0 -0 -0 -0 -0 -0 -0 -0 -0 -0 -0 -0 -0 -0 -0 -84 -0 -0 -0 -0 -0 -0 -0 -0 -0 -0 -0 -0 -0 -0 -0 -0 -0 -0 -0 -0 -0 -312 -361 -193 -151 -146 -151
-0 -0 -0 -0 -0 -0 -0 -0 -0 -0 -0 -0 -0 -0 -0 -87 -112 -103 -0 -0 -0 -0 -0 -0 -0 -0 -0 -0 -0 -0 -0 -0 -0 -0 -0 -0 -0 -292 -7 -6 -286 -167 -162 -142 -137
-0 -0 -0 -0 -0 -0 -0 -0 -0 -0 -0 -0 -0 -47 -47 -0 -0 -0 -0 -0 -0 -0 -0 -0 -0 -0 -0 -0 -0 -0 -0 -0 -129 -126 -116 -0 -82 -223 -217 -231 -190 -151 -159 -134 -138
Wind_Speed
22 22 23 23 23 23 23 23 23 23 23 23 22 22 22 23 22 16 22 20 11 10 15 12 13 16 15 16 16 14 14 16 19 20 20 19 17 18 19 18 17 16 16 16 20
23 23 23 23 24 24 23 23 23 24 24 24 23 23 22 22 21 23 22 17 8 15 16 15 16 15 15 15 16 9 12 15 20 21 20 19 18 19 19 18 17 17 17 17 19
23 23 24 24 24 24 24 24 23 23 24 24 24 23 23 21 18 14 17 19 26 9 13 15 15 16 13 14 13 15 12 12 17 16 17 18 16 17 18 18 15 14 16 16 19
24 24 24 24 24 24 24 24 23 23 23 23 23 23 23 18 12 13 16 12 5 6 9 14 17 16 13 13 15 13 13 14 12 13 16 16 17 15 13 17 20 14 14 15 15
25 25 25 25 24 24 24 24 24 23 23 22 22 22 18 17 21 16 16 11 9 9 10 20 15 14 13 15 13 14 15 16 14 12 13 15 13 14 12 13 19 15 13 13 13
26 26 25 24 24 23 23 24 24 23 23 22 21 21 18 19 16 16 16 12 10 11 17 17 15 15 13 14 13 16 18 17 11 11 13 12 12 13 17 17 16 13 12 10 11
26 26 25 24 23 23 23 23 23 23 22 22 20 17 17 24 15 19 18 14 12 14 18 17 16 14 16 12 16 18 18 18 15 11 13 12 10 12 15 15 14 12 10 9 9
27 26 25 23 22 22 22 22 22 22 21 20 18 16 20 19 22 23 18 17 18 22 21 19 18 13 14 17 16 17 17 18 18 20 15 11 11 17 13 13 12 11 10 8 9
27 26 24 23 21 21 20 20 21 21 20 19 15 15 18 20 20 18 17 19 20 18 17 14 16 13 14 15 14 16 17 20 21 21 15 12 14 16 14 11 10 10 10 8 9
27 26 24 21 20 19 18 19 14 15 16 18 19 14 19 15 19 18 21 21 18 16 15 18 13 14 15 15 14 17 18 21 18 19 19 13 6 15 14 11 10 9 9 9 10
27 25 23 20 18 16 13 9 10 13 18 16 16 16 17 17 22 23 22 17 18 15 13 15 12 16 16 10 11 14 15 17 17 18 18 17 9 18 15 11 10 8 8 8 10
27 24 22 19 18 17 16 13 12 12 14 22 23 22 21 19 19 21 21 19 19 16 12 10 3 4 8 10 11 13 14 14 15 19 17 14 9 17 18 13 10 6 8 15 14
26 23 20 18 17 17 18 16 14 14 14 15 18 20 18 19 18 21 19 13 15 12 9 3 9 8 10 11 13 10 9 12 13 19 18 17 15 16 15 11 10 9 6 7 9
26 23 20 18 17 16 18 18 18 17 12 13 15 14 13 15 13 18 18 9 12 5 7 13 7 7 9 9 9 11 10 10 13 16 19 18 7 18 13 10 8 8 6 13 24
26 23 21 19 17 16 15 17 12 14 11 13 14 15 14 14 7 12 14 8 6 6 5 6 5 6 8 8 9 13 12 12 14 15 15 18 13 12 14 11 10 11 8 12 5
26 24 20 17 18 18 18 15 15 15 13 12 11 13 11 14 12 10 10 10 10 11 14 4 8 8 8 11 8 11 10 10 11 15 11 14 18 21 15 15 14 22 22 9 13
26 21 17 17 17 16 14 12 14 15 14 12 13 10 11 12 10 9 5 4 9 7 6 10 4 8 7 6 9 10 14 17 16 16 16 16 18 18 16 13 18 20 15 7 14
24 18 20 21 17 15 13 15 16 15 15 12 11 7 10 9 13 11 6 6 9 7 7 6 7 9 9 8 14 16 19 18 17 17 19 12 18 19 17 16 18 11 8 11 10
21 16 18 19 23 16 16 18 16 14 14 14 10 9 12 10 11 10 8 4 2 7 7 7 11 13 13 10 11 16 20 9 17 17 15 15 12 6 19 16 14 19 20 15 11
16 15 16 17 14 16 18 19 17 14 16 14 17 12 9 6 8 9 8 8 6 2 7 10 11 12 11 11 12 7 12 8 14 13 13 12 16 16 20 18 16 19 21 16 14
14 13 14 13 15 18 21 21 19 18 15 16 16 11 11 8 6 7 8 10 9 7 3 7 11 12 12 15 16 13 15 15 12 18 20 21 19 13 9 15 16 18 20 20 21
14 14 15 17 19 20 23 20 19 21 19 20 15 15 6 2 4 9 10 12 11 4 2 6 12 16 14 15 15 15 15 15 11 16 21 22 16 11 20 14 15 18 19 19 20
13 13 17 18 22 23 22 22 22 22 18 14 15 12 9 4 8 10 11 13 6 7 3 2 12 14 16 15 16 18 17 16 14 18 12 20 19 21 18 12 14 17 18 18 19
16 15 16 18 19 19 19 21 21 18 19 15 16 10 7 8 11 7 7 11 8 10 8 6 12 18 23 19 16 17 19 17 22 22 20 2 3 19 20 10 12 15 16 17 18
16 16 16 20 22 22 20 20 20 19 15 14 13 11 9 7 10 10 15 12 10 6 12 14 15 15 14 14 16 18 21 19 18 24 17 18 17 22 21 11 10 12 14 16 18
16 17 16 17 18 18 18 20 18 16 16 14 8 8 9 7 11 7 11 11 13 13 14 15 15 16 17 16 18 22 21 22 19 18 18 19 19 19 15 12 11 11 13 15 17
16 16 16 15 16 16 19 18 16 17 12 9 8 5 6 8 9 9 10 13 13 12 15 16 14 18 22 23 25 28 25 17 18 17 18 18 17 15 14 11 10 11 12 14 15
Wind_Direction
305 299 294 288 283 281 280 280 280 280 279 279 278 276 276 277 271 285 241 241 282 295 278 320 331 351 48 357 37 44 330 352 15 48 55 77 75 50 38 43 52 62 40 71 106
306 301 296 290 283 280 277 274 274 276 277 277 278 276 276 280 272 256 251 268 313 284 276 289 280 18 321 343 37 290 329 359 64 55 51 70 73 52 49 48 52 55 42 81 109
306 302 297 292 285 279 276 272 270 269 273 275 276 276 274 276 279 279 269 262 211 310 305 296 311 290 292 230 166 158 325 184 68 95 81 57 70 66 49 55 76 82 72 91 117
303 299 296 292 286 279 274 272 268 266 267 271 274 274 271 276 284 273 277 293 331 334 335 288 242 254 272 288 217 289 169 70 234 110 65 52 62 66 91 48 34 73 82 92 111
304 299 295 291 285 279 274 270 269 264 265 267 271 273 276 277 258 273 277 289 295 310 310 231 267 266 286 281 272 287 265 247 228 172 76 56 62 63 75 57 19 57 75 95 112
304 299 296 291 285 280 274 269 268 262 263 268 270 271 275 267 269 270 274 274 289 289 252 243 263 269 288 290 313 248 258 239 178 123 71 62 54 64 37 40 42 64 77 97 116
305 300 296 290 282 275 270 268 264 260 262 267 274 285 277 246 264 255 258 261 275 265 241 243 253 276 257 300 245 260 277 293 12 52 34 58 58 46 35 45 46 60 74 99 121
306 301 295 286 275 269 266 261 256 255 254 264 278 287 263 255 251 247 252 254 251 228 229 240 239 287 274 241 279 329 348 347 10 3 24 60 41 34 50 48 59 73 75 101 138
306 300 293 283 273 270 264 254 246 239 234 238 279 275 263 252 245 246 249 239 230 239 241 260 248 281 287 318 351 344 346 340 326 8 34 49 23 27 31 59 91 80 81 99 135
305 299 292 283 273 268 255 240 258 250 243 225 220 260 239 252 239 241 228 223 237 246 248 249 273 281 300 319 340 342 347 346 13 14 16 36 88 19 34 54 77 100 113 133 150
304 297 289 278 266 258 258 287 288 273 240 241 228 223 214 220 212 214 219 233 236 247 258 261 285 290 303 7 23 9 7 7 16 17 19 18 63 7 33 99 69 96 136 156 186
302 294 284 271 256 242 234 256 255 253 252 213 210 212 211 216 216 220 223 231 236 246 266 296 105 27 46 42 18 10 6 10 21 11 26 47 71 18 15 63 79 127 190 227 224
301 292 282 266 250 237 232 231 240 250 253 242 225 219 223 215 227 220 225 246 250 264 287 32 335 37 356 7 7 28 40 17 18 10 21 23 27 25 43 96 100 99 144 108 51
299 288 277 261 245 241 235 234 237 236 263 253 239 243 248 237 252 231 231 269 273 299 308 292 334 66 22 27 34 11 51 32 18 16 2 20 120 37 79 149 152 132 135 57 348
296 282 267 249 249 243 246 252 266 257 273 262 252 252 248 251 281 253 249 292 318 322 338 1 43 51 16 29 44 11 22 19 4 17 26 352 128 125 87 110 110 70 84 65 148
295 280 259 251 247 245 255 252 256 267 272 270 268 260 261 263 266 266 269 293 302 294 289 77 350 360 21 10 57 29 38 35 35 9 94 295 340 351 75 74 57 19 23 102 275
294 278 256 250 245 260 256 256 264 268 270 269 270 274 263 265 279 276 283 288 293 306 322 323 89 355 18 41 49 98 153 181 145 185 223 1 5 19 40 63 34 25 54 131 277
291 277 252 243 247 259 251 256 262 269 268 280 288 302 272 270 272 280 290 283 286 315 1 7 10 27 48 93 144 157 175 169 161 213 271 54 359 11 27 40 30 77 124 111 109
288 276 253 244 234 252 249 250 258 265 283 282 287 290 273 266 284 287 294 283 289 127 333 347 343 357 5 33 86 150 179 129 198 225 207 245 203 179 357 32 75 60 64 81 102
289 270 254 246 239 248 248 251 259 274 287 282 263 282 265 257 281 283 295 293 287 140 129 322 333 354 4 345 327 187 61 221 248 148 172 186 238 228 334 27 67 50 44 73 84
279 266 254 238 244 245 244 248 261 271 288 281 274 285 272 264 277 294 298 292 282 296 124 315 320 321 324 292 281 310 320 324 6 254 255 294 277 195 96 33 45 43 36 40 46
268 257 243 246 239 246 246 252 268 266 285 278 284 281 292 184 272 277 284 292 289 314 275 289 312 286 310 321 314 309 321 330 179 209 267 282 247 116 310 27 40 31 32 37 38
265 254 240 249 239 244 251 253 261 266 282 286 281 288 274 267 284 278 292 291 313 312 34 113 301 289 294 318 324 305 316 333 352 327 358 326 330 329 354 22 17 15 22 29 25
249 247 247 249 249 248 251 252 257 277 276 278 272 287 269 271 282 291 313 293 295 302 313 294 307 284 279 310 322 320 315 323 304 315 321 15 226 336 341 16 14 16 23 26 19
260 251 253 242 246 250 255 258 256 264 279 272 275 285 271 290 279 286 267 269 292 318 288 287 294 306 319 336 329 328 319 322 321 302 327 333 342 335 339 16 23 27 25 19 15
263 257 262 258 258 257 252 250 254 268 262 267 288 297 277 292 290 281 271 273 279 280 278 288 300 308 311 321 323 322 321 313 320 322 325 325 331 345 2 21 29 33 22 14 13
283 274 270 272 271 255 246 250 254 254 269 278 286 315 324 306 307 299 307 300 295 288 288 291 305 303 302 309 310 306 311 321 319 324 324 327 336 351 1 16 25 20 18 19 18